Time,TemperatureF,DewpointF,PressureIn,WindDirection,WindDirectionDegrees,WindSpeedMPH,WindSpeedGustMPH,Humidity,HourlyPrecipIn,Conditions,Clouds,dailyrainin,SoftwareType,DateUTC
2013-07-22 00:01:00,68.2,66.4,29.96,WNW,294,0.0,0.0,94,0.00,,,0.00,meteohub,2013-07-22 04:01:00,
2013-07-22 00:02:00,68.2,66.4,29.96,WNW,294,0.0,0.0,94,0.00,,,0.00,meteohub,2013-07-22 04:02:00,
2013-07-22 00:04:00,68.2,66.4,29.96,WNW,294,0.0,0.0,94,0.00,,,0.00,meteohub,2013-07-22 04:04:00,
2013-07-22 00:09:00,68.0,66.2,29.96,WNW,294,0.0,0.0,94,0.00,,,0.00,meteohub,2013-07-22 04:09:00,
2013-07-22 00:14:00,68.0,66.2,29.96,WNW,294,0.0,0.0,94,0.00,,,0.00,meteohub,2013-07-22 04:14:00,
2013-07-22 00:19:00,68.0,66.2,29.96,WNW,294,0.0,0.0,94,0.00,,,0.00,meteohub,2013-07-22 04:19:00,
2013-07-22 00:24:00,68.0,66.2,29.96,WNW,294,0.0,0.0,94,0.00,,,0.00,meteohub,2013-07-22 04:24:00,
2013-07-22 00:30:00,68.0,66.2,29.96,WNW,294,0.0,0.0,94,0.00,,,0.00,meteohub,2013-07-22 04:30:00,
2013-07-22 00:35:00,67.8,66.4,29.96,WNW,294,0.0,0.0,95,0.00,,,0.00,meteohub,2013-07-22 04:35:00,
2013-07-22 00:40:00,67.8,66.4,29.96,WNW,294,0.0,0.0,95,0.00,,,0.00,meteohub,2013-07-22 04:40:00,
2013-07-22 00:45:00,67.8,66.4,29.96,WNW,294,0.0,0.0,95,0.00,,,0.00,meteohub,2013-07-22 04:45:00,
2013-07-22 00:50:00,67.8,66.4,29.96,WNW,294,0.0,0.0,95,0.00,,,0.00,meteohub,2013-07-22 04:50:00,
2013-07-22 00:55:00,67.8,66.4,29.96,WNW,294,0.0,0.0,95,0.00,,,0.00,meteohub,2013-07-22 04:55:00,
2013-07-22 01:01:00,67.8,66.4,29.96,WNW,294,0.0,0.0,95,0.00,,,0.00,meteohub,2013-07-22 05:01:00,
2013-07-22 01:06:00,67.8,66.4,29.96,WNW,294,0.0,0.0,95,0.00,,,0.00,meteohub,2013-07-22 05:06:00,
2013-07-22 01:11:00,67.8,66.4,29.96,WNW,294,0.0,0.0,95,0.00,,,0.00,meteohub,2013-07-22 05:11:00,
2013-07-22 01:16:00,67.8,66.4,29.96,WNW,294,0.0,0.0,95,0.00,,,0.00,meteohub,2013-07-22 05:16:00,
2013-07-22 01:21:00,67.8,66.4,29.96,WNW,294,0.0,0.0,95,0.00,,,0.00,meteohub,2013-07-22 05:21:00,
2013-07-22 01:26:00,67.8,66.4,29.96,WNW,294,0.0,0.0,95,0.00,,,0.00,meteohub,2013-07-22 05:26:00,
2013-07-22 01:32:00,67.8,66.4,29.96,WNW,294,0.0,0.0,95,0.00,,,0.00,meteohub,2013-07-22 05:32:00,
2013-07-22 01:37:00,67.8,66.4,29.96,WNW,294,0.0,0.0,95,0.00,,,0.00,meteohub,2013-07-22 05:37:00,
2013-07-22 01:42:00,67.8,66.4,29.96,WNW,294,0.0,0.0,95,0.00,,,0.00,meteohub,2013-07-22 05:42:00,
2013-07-22 01:47:00,67.8,66.4,29.96,WNW,294,0.0,0.0,95,0.00,,,0.00,meteohub,2013-07-22 05:47:00,
2013-07-22 01:52:00,67.8,66.4,29.96,WNW,294,0.0,0.0,95,0.00,,,0.00,meteohub,2013-07-22 05:52:00,
2013-07-22 01:57:00,67.6,66.2,29.96,WNW,294,0.0,0.0,95,0.00,,,0.00,meteohub,2013-07-22 05:57:00,
2013-07-22 02:02:00,67.6,66.2,29.96,WNW,294,0.0,0.0,95,0.00,,,0.00,meteohub,2013-07-22 06:02:00,
2013-07-22 02:07:00,67.6,66.2,29.96,WNW,294,0.0,0.0,95,0.00,,,0.00,meteohub,2013-07-22 06:07:00,
2013-07-22 02:12:00,67.6,66.2,29.96,WNW,294,0.0,0.0,95,0.00,,,0.00,meteohub,2013-07-22 06:12:00,
2013-07-22 02:17:00,67.6,66.4,29.96,WNW,294,0.0,0.0,96,0.00,,,0.00,meteohub,2013-07-22 06:17:00,
2013-07-22 02:22:00,67.6,66.4,29.96,WNW,294,0.0,0.0,96,0.00,,,0.00,meteohub,2013-07-22 06:22:00,
2013-07-22 02:27:00,67.5,66.0,29.96,WNW,294,0.0,0.0,95,0.00,,,0.00,meteohub,2013-07-22 06:27:00,
2013-07-22 02:32:00,67.5,66.2,29.96,WNW,294,0.0,0.0,96,0.00,,,0.00,meteohub,2013-07-22 06:32:00,
2013-07-22 02:37:00,67.5,66.2,29.96,WNW,294,0.0,0.0,96,0.00,,,0.00,meteohub,2013-07-22 06:37:00,
2013-07-22 02:42:00,67.5,66.2,29.96,WNW,294,0.0,0.0,96,0.00,,,0.00,meteohub,2013-07-22 06:42:00,
2013-07-22 02:47:00,67.5,66.2,29.96,WNW,294,0.0,0.0,96,0.00,,,0.00,meteohub,2013-07-22 06:47:00,
2013-07-22 02:52:00,67.5,66.2,29.95,WNW,294,0.0,0.0,96,0.00,,,0.00,meteohub,2013-07-22 06:52:00,
2013-07-22 02:57:00,67.5,66.2,29.95,WNW,294,0.0,0.0,96,0.00,,,0.00,meteohub,2013-07-22 06:57:00,
2013-07-22 03:02:00,67.5,66.2,29.95,WNW,294,0.0,0.0,96,0.00,,,0.00,meteohub,2013-07-22 07:02:00,
2013-07-22 03:07:00,67.5,66.2,29.95,WNW,294,0.0,0.0,96,0.00,,,0.00,meteohub,2013-07-22 07:07:00,
2013-07-22 03:12:00,67.5,66.2,29.95,WNW,294,0.0,0.0,96,0.00,,,0.00,meteohub,2013-07-22 07:12:00,
2013-07-22 03:17:00,67.3,66.0,29.95,WNW,294,0.0,0.0,96,0.00,,,0.00,meteohub,2013-07-22 07:17:00,
2013-07-22 03:22:00,67.3,66.0,29.95,WNW,294,0.0,0.0,96,0.00,,,0.00,meteohub,2013-07-22 07:22:00,
2013-07-22 03:27:00,67.3,66.0,29.95,WNW,294,0.0,0.0,96,0.00,,,0.00,meteohub,2013-07-22 07:27:00,
2013-07-22 03:32:00,67.5,66.2,29.94,WNW,294,0.0,0.0,96,0.00,,,0.00,meteohub,2013-07-22 07:32:00,
2013-07-22 03:37:00,67.5,66.2,29.94,WNW,294,0.0,0.0,96,0.00,,,0.00,meteohub,2013-07-22 07:37:00,
2013-07-22 03:42:00,67.5,66.6,29.94,WNW,294,0.0,0.0,97,0.00,,,0.00,meteohub,2013-07-22 07:42:00,
2013-07-22 03:47:00,67.5,66.6,29.94,WNW,294,0.0,0.0,97,0.00,,,0.00,meteohub,2013-07-22 07:47:00,
2013-07-22 03:52:00,67.5,66.6,29.94,WNW,294,0.0,0.0,97,0.00,,,0.00,meteohub,2013-07-22 07:52:00,
2013-07-22 03:57:00,67.6,66.7,29.94,WNW,294,0.0,0.0,97,0.00,,,0.00,meteohub,2013-07-22 07:57:00,
2013-07-22 04:02:00,67.6,66.7,29.94,WNW,294,0.0,0.0,97,0.00,,,0.00,meteohub,2013-07-22 08:02:00,
2013-07-22 04:07:00,67.8,66.9,29.94,WNW,294,0.0,0.0,97,0.00,,,0.00,meteohub,2013-07-22 08:07:00,
2013-07-22 04:12:00,67.8,66.9,29.93,WNW,294,0.0,0.0,97,0.00,,,0.00,meteohub,2013-07-22 08:12:00,
2013-07-22 04:17:00,67.8,66.9,29.93,WNW,294,0.0,0.0,97,0.00,,,0.00,meteohub,2013-07-22 08:17:00,
2013-07-22 04:22:00,67.8,66.9,29.93,WNW,294,0.0,0.0,97,0.00,,,0.00,meteohub,2013-07-22 08:22:00,
2013-07-22 04:27:00,67.8,66.9,29.94,WNW,294,0.0,0.0,97,0.00,,,0.00,meteohub,2013-07-22 08:27:00,
2013-07-22 04:32:00,67.8,66.9,29.94,WNW,294,0.0,0.0,97,0.00,,,0.00,meteohub,2013-07-22 08:32:00,
2013-07-22 04:37:00,67.8,66.9,29.94,WNW,294,0.0,0.0,97,0.00,,,0.00,meteohub,2013-07-22 08:37:00,
2013-07-22 04:42:00,67.8,66.9,29.94,WNW,294,0.0,0.0,97,0.00,,,0.00,meteohub,2013-07-22 08:42:00,
2013-07-22 04:47:00,67.8,66.9,29.94,WNW,294,0.0,0.0,97,0.00,,,0.00,meteohub,2013-07-22 08:47:00,
2013-07-22 04:52:00,67.8,66.9,29.94,WNW,294,0.0,0.0,97,0.00,,,0.00,meteohub,2013-07-22 08:52:00,
2013-07-22 04:57:00,67.8,66.9,29.94,WNW,294,0.0,0.0,97,0.41,,,0.00,meteohub,2013-07-22 08:57:00,
2013-07-22 05:02:00,67.8,66.9,29.94,WNW,294,0.0,0.0,97,0.43,,,0.43,meteohub,2013-07-22 09:02:00,
2013-07-22 05:07:00,67.8,66.9,29.94,WNW,294,0.0,0.0,97,0.86,,,0.86,meteohub,2013-07-22 09:07:00,
2013-07-22 05:12:00,67.8,66.9,29.95,WNW,294,0.0,0.0,97,0.86,,,0.86,meteohub,2013-07-22 09:12:00,
2013-07-22 05:17:00,67.8,66.9,29.96,WNW,294,0.0,0.0,97,0.86,,,0.86,meteohub,2013-07-22 09:17:00,
2013-07-22 05:22:00,67.8,66.9,29.95,WNW,294,0.0,0.0,97,0.86,,,0.86,meteohub,2013-07-22 09:22:00,
2013-07-22 05:27:00,67.8,66.9,29.95,WNW,294,0.0,0.0,97,0.86,,,0.86,meteohub,2013-07-22 09:27:00,
2013-07-22 05:32:00,67.8,66.9,29.95,WNW,294,0.0,0.0,97,0.89,,,0.89,meteohub,2013-07-22 09:32:00,
2013-07-22 05:37:00,67.8,66.9,29.96,WNW,294,0.0,0.0,97,0.89,,,0.89,meteohub,2013-07-22 09:37:00,
2013-07-22 05:42:00,67.8,66.9,29.96,WNW,294,0.0,0.0,97,1.15,,,1.15,meteohub,2013-07-22 09:42:00,
2013-07-22 05:47:00,67.8,66.9,29.96,WNW,294,0.0,0.0,97,1.29,,,1.29,meteohub,2013-07-22 09:47:00,
2013-07-22 05:52:00,67.8,66.9,29.96,WNW,294,0.0,0.0,97,1.46,,,1.46,meteohub,2013-07-22 09:52:00,
2013-07-22 05:57:00,67.8,66.9,29.96,WNW,294,0.0,0.0,97,1.18,,,1.59,meteohub,2013-07-22 09:57:00,
2013-07-22 06:02:00,67.8,66.9,29.96,WNW,294,0.0,0.0,97,1.29,,,1.72,meteohub,2013-07-22 10:02:00,
2013-07-22 06:07:00,67.8,66.9,29.96,WNW,294,0.0,0.0,97,1.99,,,2.85,meteohub,2013-07-22 10:07:00,
2013-07-22 06:12:00,68.0,67.1,29.96,WNW,294,0.0,0.0,97,2.56,,,3.42,meteohub,2013-07-22 10:12:00,
2013-07-22 06:17:00,68.2,67.6,29.96,WNW,294,0.0,0.0,98,2.83,,,3.69,meteohub,2013-07-22 10:17:00,
2013-07-22 06:22:00,68.4,67.8,29.96,WNW,294,0.0,0.0,98,3.54,,,4.40,meteohub,2013-07-22 10:22:00,
2013-07-22 06:27:00,68.4,67.8,29.96,WNW,294,0.0,0.0,98,3.66,,,4.52,meteohub,2013-07-22 10:27:00,
2013-07-22 06:32:00,68.5,68.0,29.96,WNW,294,0.0,0.0,98,4.09,,,4.98,meteohub,2013-07-22 10:32:00,
2013-07-22 06:37:00,68.5,68.0,29.96,WNW,294,0.0,0.0,98,5.62,,,6.42,meteohub,2013-07-22 10:37:00,
2013-07-22 06:42:00,68.7,68.2,29.97,WNW,294,0.0,0.0,98,6.09,,,7.24,meteohub,2013-07-22 10:42:00,
2013-07-22 06:47:00,68.7,68.2,29.96,WNW,294,0.0,0.0,98,7.22,,,8.68,meteohub,2013-07-22 10:47:00,
2013-07-22 06:52:00,68.9,68.0,29.96,WNW,294,0.0,0.0,97,7.22,,,8.68,meteohub,2013-07-22 10:52:00,
2013-07-22 06:57:00,69.1,68.2,29.96,WNW,294,0.0,0.0,97,9.25,,,10.84,meteohub,2013-07-22 10:57:00,
2013-07-22 07:02:00,69.1,68.2,29.97,WNW,294,0.0,0.0,97,10.01,,,12.16,meteohub,2013-07-22 11:02:00,
2013-07-22 07:07:00,69.3,68.4,29.96,WNW,294,0.0,0.0,97,10.00,,,12.85,meteohub,2013-07-22 11:07:00,
2013-07-22 07:12:00,69.3,68.7,29.96,WNW,294,0.0,0.0,98,9.67,,,13.20,meteohub,2013-07-22 11:12:00,
2013-07-22 07:17:00,69.4,68.5,29.96,WNW,294,0.0,0.0,97,9.29,,,13.43,meteohub,2013-07-22 11:17:00,
2013-07-22 07:22:00,69.4,68.5,29.96,WNW,294,0.0,0.0,97,9.91,,,14.31,meteohub,2013-07-22 11:22:00,
2013-07-22 07:27:00,69.8,69.3,29.96,WNW,294,0.0,0.0,98,10.51,,,15.03,meteohub,2013-07-22 11:27:00,
2013-07-22 07:32:00,70.0,69.4,29.96,WNW,294,0.0,0.0,98,11.13,,,16.47,meteohub,2013-07-22 11:32:00,
2013-07-22 07:37:00,70.2,69.3,29.96,WNW,294,0.0,0.0,97,11.52,,,18.03,meteohub,2013-07-22 11:37:00,
2013-07-22 07:42:00,70.2,69.3,29.96,WNW,294,0.0,0.0,97,11.15,,,18.75,meteohub,2013-07-22 11:42:00,
2013-07-22 07:47:00,70.3,69.4,29.96,WNW,294,0.0,0.0,97,11.39,,,20.19,meteohub,2013-07-22 11:47:00,
2013-07-22 07:52:00,70.3,69.4,29.96,WNW,294,0.0,0.0,97,11.63,,,21.63,meteohub,2013-07-22 11:52:00,
2013-07-22 07:57:00,70.5,69.3,29.96,WNW,294,0.0,0.0,96,10.66,,,21.86,meteohub,2013-07-22 11:57:00,
2013-07-22 08:02:00,70.5,69.3,29.96,WNW,294,0.0,0.0,96,9.87,,,22.20,meteohub,2013-07-22 12:02:00,
2013-07-22 08:07:00,70.9,69.6,29.96,WNW,294,0.0,0.0,96,9.80,,,22.92,meteohub,2013-07-22 12:07:00,
2013-07-22 08:12:00,71.1,69.8,29.96,WNW,294,0.0,0.0,96,11.28,,,24.48,meteohub,2013-07-22 12:12:00,
2013-07-22 08:17:00,71.2,70.0,29.97,WNW,294,0.0,0.0,96,11.37,,,25.28,meteohub,2013-07-22 12:17:00,
2013-07-22 08:22:00,71.2,69.8,29.97,WNW,294,0.0,0.0,95,10.84,,,25.51,meteohub,2013-07-22 12:22:00,
2013-07-22 08:27:00,71.4,70.0,29.97,WNW,294,0.0,0.0,95,10.34,,,26.21,meteohub,2013-07-22 12:27:00,
2013-07-22 08:32:00,71.6,70.2,29.97,WNW,294,0.0,0.0,95,9.97,,,27.04,meteohub,2013-07-22 12:32:00,
2013-07-22 08:38:00,71.8,70.3,29.97,WNW,294,0.0,0.0,95,9.43,,,27.70,meteohub,2013-07-22 12:38:00,
2013-07-22 08:43:00,72.0,70.5,29.96,WNW,294,0.0,0.0,95,9.79,,,29.14,meteohub,2013-07-22 12:43:00,
2013-07-22 08:48:00,72.0,70.2,29.97,WNW,294,0.0,0.0,94,9.31,,,29.86,meteohub,2013-07-22 12:48:00,
2013-07-22 08:53:00,72.1,70.3,29.97,WNW,294,0.0,0.0,94,9.55,,,31.18,meteohub,2013-07-22 12:53:00,
2013-07-22 08:58:00,72.3,70.5,29.96,WNW,294,0.0,0.0,94,10.51,,,32.37,meteohub,2013-07-22 12:58:00,
2013-07-22 09:03:00,72.5,70.7,29.96,WNW,294,0.0,0.0,94,10.36,,,32.92,meteohub,2013-07-22 13:03:00,
2013-07-22 09:08:00,72.7,70.9,29.97,WNW,294,0.0,0.0,94,9.99,,,33.75,meteohub,2013-07-22 13:08:00,
2013-07-22 09:13:00,72.9,70.7,29.97,WNW,294,0.0,0.0,93,8.79,,,33.75,meteohub,2013-07-22 13:13:00,
2013-07-22 09:19:00,72.9,70.7,29.97,WNW,294,0.0,0.0,93,8.93,,,34.21,meteohub,2013-07-22 13:19:00,
2013-07-22 09:24:00,73.0,70.9,29.97,WNW,294,0.0,0.0,93,8.15,,,34.36,meteohub,2013-07-22 13:24:00,
2013-07-22 09:29:00,73.2,71.1,29.97,WNW,294,0.0,0.0,93,8.15,,,34.36,meteohub,2013-07-22 13:29:00,
2013-07-22 09:34:00,73.2,70.7,29.97,WNW,294,0.0,0.0,92,7.20,,,34.36,meteohub,2013-07-22 13:34:00,
2013-07-22 09:39:00,73.6,71.1,29.97,WNW,294,0.0,0.0,92,6.18,,,34.36,meteohub,2013-07-22 13:39:00,
2013-07-22 09:44:00,73.6,71.1,29.97,WNW,294,0.0,0.0,92,5.04,,,34.42,meteohub,2013-07-22 13:44:00,
2013-07-22 09:49:00,73.6,70.7,29.97,WNW,294,0.0,0.0,91,4.04,,,34.62,meteohub,2013-07-22 13:49:00,
2013-07-22 09:55:00,73.8,70.9,29.97,WNW,294,0.0,0.0,91,4.28,,,36.52,meteohub,2013-07-22 13:55:00,
2013-07-22 10:00:00,73.8,70.9,29.97,WNW,294,0.0,0.0,91,3.12,,,36.56,meteohub,2013-07-22 14:00:00,
2013-07-22 10:05:00,73.9,71.1,29.97,WNW,294,0.0,0.0,91,2.93,,,36.68,meteohub,2013-07-22 14:05:00,
2013-07-22 10:10:00,74.1,71.2,29.97,WNW,294,0.0,0.0,91,2.73,,,36.70,meteohub,2013-07-22 14:10:00,
2013-07-22 10:15:00,74.3,71.2,29.97,WNW,294,0.0,0.0,90,2.44,,,36.70,meteohub,2013-07-22 14:15:00,
2013-07-22 10:21:00,74.5,71.6,29.97,WNW,294,0.0,0.0,91,2.34,,,36.70,meteohub,2013-07-22 14:21:00,
2013-07-22 10:26:00,74.7,71.6,29.97,WNW,294,0.0,0.0,90,2.34,,,36.70,meteohub,2013-07-22 14:26:00,
2013-07-22 10:31:00,74.8,71.8,29.97,WNW,294,0.0,0.0,90,2.34,,,36.70,meteohub,2013-07-22 14:31:00,
2013-07-22 10:36:00,75.2,72.1,29.96,WNW,294,0.0,0.0,90,2.34,,,36.70,meteohub,2013-07-22 14:36:00,
2013-07-22 10:41:00,75.6,72.1,29.96,WNW,294,0.0,0.0,89,2.28,,,36.70,meteohub,2013-07-22 14:41:00,
2013-07-22 10:46:00,75.7,72.3,29.96,WNW,294,0.0,0.0,89,1.56,,,36.71,meteohub,2013-07-22 14:46:00,
2013-07-22 10:52:00,75.9,72.1,29.96,WNW,294,0.0,0.0,88,0.29,,,36.71,meteohub,2013-07-22 14:52:00,
2013-07-22 10:57:00,76.3,72.1,29.96,WNW,294,0.0,0.0,87,0.18,,,36.71,meteohub,2013-07-22 14:57:00,
2013-07-22 11:02:00,76.6,72.9,29.96,WNW,294,0.0,0.0,88,0.15,,,36.71,meteohub,2013-07-22 15:02:00,
2013-07-22 11:07:00,76.8,72.7,29.97,WNW,294,0.0,0.0,87,0.01,,,36.71,meteohub,2013-07-22 15:07:00,
2013-07-22 11:12:00,77.2,73.0,29.97,WNW,294,0.0,0.0,87,0.01,,,36.71,meteohub,2013-07-22 15:12:00,
2013-07-22 11:17:00,77.4,73.2,29.96,WNW,294,0.0,0.0,87,0.01,,,36.71,meteohub,2013-07-22 15:17:00,
2013-07-22 11:22:00,77.5,73.0,29.96,WNW,294,0.0,0.0,86,0.01,,,36.71,meteohub,2013-07-22 15:22:00,
2013-07-22 11:27:00,77.9,73.0,29.96,WNW,294,0.0,0.0,85,0.01,,,36.71,meteohub,2013-07-22 15:27:00,
2013-07-22 11:32:00,78.3,73.4,29.96,WNW,294,0.0,0.0,85,0.01,,,36.71,meteohub,2013-07-22 15:32:00,
2013-07-22 11:37:00,78.4,74.3,29.96,WNW,294,0.0,0.0,87,0.06,,,36.76,meteohub,2013-07-22 15:37:00,
2013-07-22 11:42:00,78.6,73.0,29.96,WNW,294,0.0,0.0,83,0.11,,,36.82,meteohub,2013-07-22 15:42:00,
2013-07-22 11:47:00,78.8,73.9,29.96,WNW,294,0.0,0.0,85,1.55,,,38.26,meteohub,2013-07-22 15:47:00,
2013-07-22 11:52:00,78.6,73.4,29.96,WNW,294,0.0,0.0,84,2.73,,,39.44,meteohub,2013-07-22 15:52:00,
2013-07-22 11:57:00,78.8,73.6,29.96,WNW,294,0.0,0.0,84,3.23,,,39.94,meteohub,2013-07-22 15:57:00,
2013-07-22 12:02:00,79.0,73.8,29.96,WNW,294,0.0,0.0,84,3.77,,,40.48,meteohub,2013-07-22 16:02:00,
2013-07-22 12:07:00,79.0,73.4,29.95,WNW,294,0.0,0.0,83,4.49,,,41.20,meteohub,2013-07-22 16:07:00,
2013-07-22 12:12:00,78.8,73.9,29.95,WNW,294,0.0,0.0,85,5.35,,,42.06,meteohub,2013-07-22 16:12:00,
2013-07-22 12:17:00,79.0,73.8,29.95,WNW,294,0.0,0.0,84,6.91,,,43.62,meteohub,2013-07-22 16:17:00,
2013-07-22 12:22:00,79.0,73.4,29.95,WNW,294,0.0,0.0,83,7.33,,,44.04,meteohub,2013-07-22 16:22:00,
2013-07-22 12:27:00,79.0,73.4,29.95,WNW,294,0.0,0.0,83,8.77,,,45.48,meteohub,2013-07-22 16:27:00,
2013-07-22 12:32:00,78.8,73.6,29.95,WNW,294,0.0,0.0,84,8.87,,,45.58,meteohub,2013-07-22 16:32:00,
2013-07-22 12:37:00,78.8,73.6,29.95,WNW,294,0.0,0.0,84,8.79,,,45.58,meteohub,2013-07-22 16:37:00,
2013-07-22 12:42:00,79.0,74.1,29.94,WNW,294,0.0,0.0,85,8.61,,,46.16,meteohub,2013-07-22 16:42:00,
2013-07-22 12:47:00,79.3,74.1,29.94,WNW,294,0.0,0.0,84,7.82,,,46.55,meteohub,2013-07-22 16:47:00,
2013-07-22 12:52:00,79.5,73.6,29.94,WNW,294,0.0,0.0,82,8.00,,,47.44,meteohub,2013-07-22 16:52:00,
2013-07-22 12:57:00,79.5,73.9,29.94,WNW,294,0.0,0.0,83,8.52,,,48.47,meteohub,2013-07-22 16:57:00,
2013-07-22 13:02:00,79.5,73.6,29.94,WNW,294,0.0,0.0,82,8.45,,,49.17,meteohub,2013-07-22 17:02:00,
2013-07-22 13:07:00,79.3,73.8,29.94,WNW,294,0.0,0.0,83,9.09,,,50.58,meteohub,2013-07-22 17:07:00,
2013-07-22 13:12:00,79.2,73.2,29.94,WNW,294,0.0,0.0,82,8.71,,,51.25,meteohub,2013-07-22 17:12:00,
2013-07-22 13:17:00,79.2,73.6,29.94,WNW,294,0.0,0.0,83,8.90,,,52.64,meteohub,2013-07-22 17:17:00,
2013-07-22 13:22:00,79.3,73.8,29.94,WNW,294,0.0,0.0,83,8.74,,,53.50,meteohub,2013-07-22 17:22:00,
2013-07-22 13:27:00,79.3,73.8,29.94,WNW,294,0.0,0.0,83,8.35,,,53.93,meteohub,2013-07-22 17:27:00,
2013-07-22 13:32:00,79.3,73.4,29.94,WNW,294,0.0,0.0,82,9.21,,,54.79,meteohub,2013-07-22 17:32:00,
2013-07-22 13:37:00,79.3,73.8,29.94,WNW,294,0.0,0.0,83,9.60,,,55.18,meteohub,2013-07-22 17:37:00,
2013-07-22 13:42:00,79.0,73.0,29.94,WNW,294,0.0,0.0,82,9.08,,,55.42,meteohub,2013-07-22 17:42:00,
2013-07-22 13:47:00,78.8,73.2,29.94,WNW,294,0.0,0.0,83,8.32,,,55.42,meteohub,2013-07-22 17:47:00,
2013-07-22 13:52:00,78.4,72.9,29.94,WNW,294,0.0,0.0,83,7.98,,,55.42,meteohub,2013-07-22 17:52:00,
2013-07-22 13:57:00,78.3,73.0,29.94,WNW,294,0.0,0.0,84,6.83,,,55.42,meteohub,2013-07-22 17:57:00,
2013-07-22 14:02:00,78.3,73.0,29.94,WNW,294,0.0,0.0,84,5.78,,,55.42,meteohub,2013-07-22 18:02:00,
2013-07-22 14:07:00,78.3,73.0,29.93,WNW,294,0.0,0.0,84,4.60,,,55.42,meteohub,2013-07-22 18:07:00,
2013-07-22 14:08:00,78.3,73.0,29.93,WNW,294,0.0,0.0,84,4.60,,,55.42,meteohub,2013-07-22 18:08:00,
2013-07-22 14:17:00,78.4,73.2,29.92,WNW,294,0.0,0.0,84,2.53,,,55.51,meteohub,2013-07-22 18:17:00,
2013-07-22 14:22:00,78.6,73.4,29.92,WNW,294,0.0,0.0,84,2.12,,,55.74,meteohub,2013-07-22 18:22:00,
2013-07-22 14:28:00,78.8,73.2,29.92,WNW,294,0.0,0.0,83,1.81,,,56.29,meteohub,2013-07-22 18:28:00,
2013-07-22 14:32:00,79.2,73.6,29.92,WNW,294,0.0,0.0,83,1.36,,,56.29,meteohub,2013-07-22 18:32:00,
2013-07-22 14:37:00,79.5,73.6,29.92,WNW,294,0.0,0.0,82,0.87,,,56.29,meteohub,2013-07-22 18:37:00,
2013-07-22 14:42:00,79.7,73.8,29.92,WNW,294,0.0,0.0,82,0.87,,,56.29,meteohub,2013-07-22 18:42:00,
2013-07-22 14:47:00,80.1,74.5,29.92,WNW,294,0.0,0.0,83,0.87,,,56.29,meteohub,2013-07-22 18:47:00,
2013-07-22 14:49:00,80.1,73.8,29.91,WNW,294,0.0,0.0,81,0.87,,,56.29,meteohub,2013-07-22 18:49:00,
2013-07-22 14:57:00,80.4,74.8,29.91,WNW,294,0.0,0.0,83,0.87,,,56.29,meteohub,2013-07-22 18:57:00,
2013-07-22 15:02:00,80.8,74.8,29.92,WNW,294,0.0,0.0,82,0.91,,,56.33,meteohub,2013-07-22 19:02:00,
2013-07-22 15:07:00,81.0,74.7,29.91,WNW,294,0.0,0.0,81,0.89,,,56.33,meteohub,2013-07-22 19:07:00,
2013-07-22 15:12:00,81.1,74.7,29.91,WNW,294,0.0,0.0,81,0.85,,,56.33,meteohub,2013-07-22 19:12:00,
2013-07-22 15:17:00,81.0,73.8,29.91,WNW,294,0.0,0.0,79,0.69,,,56.33,meteohub,2013-07-22 19:17:00,
2013-07-22 15:22:00,80.8,73.9,29.91,WNW,294,0.0,0.0,80,0.26,,,56.55,meteohub,2013-07-22 19:22:00,
2013-07-22 15:27:00,80.4,74.1,29.91,WNW,294,0.0,0.0,81,0.34,,,56.63,meteohub,2013-07-22 19:27:00,
2013-07-22 15:32:00,80.4,74.1,29.90,WNW,294,0.0,0.0,81,0.34,,,56.63,meteohub,2013-07-22 19:32:00,
2013-07-22 15:38:00,80.4,74.5,29.90,WNW,294,0.0,0.0,82,0.34,,,56.63,meteohub,2013-07-22 19:38:00,
2013-07-22 15:43:00,80.2,74.3,29.90,WNW,294,0.0,0.0,82,0.34,,,56.63,meteohub,2013-07-22 19:43:00,
2013-07-22 15:48:00,79.9,73.9,29.90,WNW,294,0.0,0.0,82,0.34,,,56.63,meteohub,2013-07-22 19:48:00,
2013-07-22 15:53:00,79.3,73.8,29.90,WNW,294,0.0,0.0,83,0.34,,,56.63,meteohub,2013-07-22 19:53:00,
2013-07-22 15:58:00,79.2,73.9,29.90,WNW,294,0.0,0.0,84,0.34,,,56.63,meteohub,2013-07-22 19:58:00,
2013-07-22 16:04:00,79.2,73.9,29.90,WNW,294,0.0,0.0,84,0.34,,,56.63,meteohub,2013-07-22 20:04:00,
2013-07-22 16:09:00,79.3,74.8,29.90,WNW,294,0.0,0.0,86,0.30,,,56.63,meteohub,2013-07-22 20:09:00,
2013-07-22 16:14:00,79.9,75.0,29.89,WNW,294,0.0,0.0,85,0.33,,,56.66,meteohub,2013-07-22 20:14:00,
2013-07-22 16:17:00,80.2,74.7,29.89,WNW,294,0.0,0.0,83,0.48,,,56.83,meteohub,2013-07-22 20:17:00,
2013-07-22 16:18:00,80.2,74.3,29.89,WNW,294,0.0,0.0,82,0.48,,,56.83,meteohub,2013-07-22 20:18:00,
2013-07-22 16:23:00,80.1,74.5,29.89,WNW,294,0.0,0.0,83,0.20,,,56.83,meteohub,2013-07-22 20:23:00,
2013-07-22 16:28:00,79.9,74.3,29.89,WNW,294,0.0,0.0,83,0.20,,,56.83,meteohub,2013-07-22 20:28:00,
2013-07-22 16:33:00,79.5,73.9,29.88,WNW,294,0.0,0.0,83,0.20,,,56.83,meteohub,2013-07-22 20:33:00,
2013-07-22 16:38:00,79.3,74.1,29.88,WNW,294,0.0,0.0,84,0.20,,,56.83,meteohub,2013-07-22 20:38:00,
2013-07-22 16:43:00,79.2,73.9,29.88,WNW,294,0.0,0.0,84,0.20,,,56.83,meteohub,2013-07-22 20:43:00,
2013-07-22 16:48:00,79.0,73.8,29.89,WNW,294,0.0,0.0,84,0.20,,,56.83,meteohub,2013-07-22 20:48:00,
2013-07-22 16:54:00,78.8,73.6,29.89,WNW,294,0.0,0.0,84,0.20,,,56.83,meteohub,2013-07-22 20:54:00,
2013-07-22 16:59:00,78.6,73.4,29.89,WNW,294,0.0,0.0,84,0.20,,,56.83,meteohub,2013-07-22 20:59:00,
2013-07-22 17:04:00,78.4,73.9,29.89,WNW,294,0.0,0.0,86,0.20,,,56.83,meteohub,2013-07-22 21:04:00,
2013-07-22 17:09:00,78.4,73.9,29.89,WNW,294,0.0,0.0,86,0.19,,,56.83,meteohub,2013-07-22 21:09:00,
2013-07-22 17:14:00,78.4,73.6,29.89,WNW,294,0.0,0.0,85,0.17,,,56.83,meteohub,2013-07-22 21:14:00,
2013-07-22 17:20:00,78.4,73.6,29.89,WNW,294,0.0,0.0,85,0.00,,,56.83,meteohub,2013-07-22 21:20:00,
2013-07-22 17:25:00,78.3,73.4,29.88,WNW,294,0.0,0.0,85,0.00,,,56.83,meteohub,2013-07-22 21:25:00,
2013-07-22 17:30:00,77.7,73.2,29.88,WNW,294,0.0,0.0,86,0.00,,,56.83,meteohub,2013-07-22 21:30:00,
2013-07-22 17:35:00,77.4,73.2,29.88,WNW,294,0.0,0.0,87,0.00,,,56.83,meteohub,2013-07-22 21:35:00,
2013-07-22 17:40:00,77.2,73.0,29.88,WNW,294,0.0,0.0,87,0.00,,,56.83,meteohub,2013-07-22 21:40:00,
2013-07-22 17:45:00,76.6,72.5,29.88,WNW,294,0.0,0.0,87,0.00,,,56.83,meteohub,2013-07-22 21:45:00,
2013-07-22 17:50:00,76.5,72.7,29.88,WNW,294,0.0,0.0,88,0.00,,,56.83,meteohub,2013-07-22 21:50:00,
2013-07-22 17:56:00,75.9,72.1,29.88,WNW,294,0.0,0.0,88,0.00,,,56.83,meteohub,2013-07-22 21:56:00,
2013-07-22 18:01:00,75.7,72.3,29.88,WNW,294,0.0,0.0,89,0.00,,,56.83,meteohub,2013-07-22 22:01:00,
2013-07-22 18:06:00,75.6,72.1,29.87,WNW,294,0.0,0.0,89,0.00,,,56.83,meteohub,2013-07-22 22:06:00,
2013-07-22 18:11:00,75.4,72.0,29.87,WNW,294,0.0,0.0,89,1.16,,,57.99,meteohub,2013-07-22 22:11:00,
2013-07-22 18:16:00,75.2,72.1,29.87,WNW,294,0.0,0.0,90,1.88,,,58.71,meteohub,2013-07-22 22:16:00,
2013-07-22 18:21:00,75.0,72.0,29.87,WNW,294,0.0,0.0,90,2.56,,,59.39,meteohub,2013-07-22 22:21:00,
2013-07-22 18:27:00,74.8,71.8,29.87,WNW,294,0.0,0.0,90,2.56,,,59.39,meteohub,2013-07-22 22:27:00,
2013-07-22 18:32:00,74.7,71.6,29.86,WNW,294,0.0,0.0,90,2.91,,,59.74,meteohub,2013-07-22 22:32:00,
2013-07-22 18:37:00,74.5,71.6,29.86,WNW,294,0.0,0.0,91,4.32,,,61.15,meteohub,2013-07-22 22:37:00,
2013-07-22 18:42:00,74.5,71.6,29.87,WNW,294,0.0,0.0,91,5.26,,,62.09,meteohub,2013-07-22 22:42:00,
2013-07-22 18:47:00,74.1,71.6,29.87,WNW,294,0.0,0.0,92,5.31,,,62.14,meteohub,2013-07-22 22:47:00,
2013-07-22 18:52:00,73.9,71.4,29.87,WNW,294,0.0,0.0,92,5.34,,,62.17,meteohub,2013-07-22 22:52:00,
2013-07-22 18:58:00,73.8,71.2,29.87,WNW,294,0.0,0.0,92,5.56,,,62.22,meteohub,2013-07-22 22:58:00,
2013-07-22 19:03:00,73.6,71.4,29.87,WNW,294,0.0,0.0,93,6.35,,,63.18,meteohub,2013-07-22 23:03:00,
2013-07-22 19:08:00,73.6,71.4,29.86,WNW,294,0.0,0.0,93,7.09,,,64.21,meteohub,2013-07-22 23:08:00,
2013-07-22 19:13:00,73.6,71.4,29.86,WNW,294,0.0,0.0,93,6.19,,,64.54,meteohub,2013-07-22 23:13:00,
2013-07-22 19:18:00,73.6,71.4,29.86,WNW,294,0.0,0.0,93,6.83,,,66.01,meteohub,2013-07-22 23:18:00,
2013-07-22 19:23:00,73.6,71.4,29.86,WNW,294,0.0,0.0,93,8.06,,,67.45,meteohub,2013-07-22 23:23:00,
2013-07-22 19:28:00,73.6,71.8,29.86,WNW,294,0.0,0.0,94,8.42,,,67.91,meteohub,2013-07-22 23:28:00,
2013-07-22 19:34:00,73.6,71.8,29.86,WNW,294,0.0,0.0,94,9.03,,,69.46,meteohub,2013-07-22 23:34:00,
2013-07-22 19:39:00,73.6,71.8,29.87,WNW,294,0.0,0.0,94,8.55,,,70.18,meteohub,2013-07-22 23:39:00,
2013-07-22 19:44:00,73.6,71.8,29.87,WNW,294,0.0,0.0,94,9.36,,,71.50,meteohub,2013-07-22 23:44:00,
2013-07-22 19:49:00,73.6,71.8,29.87,WNW,294,0.0,0.0,94,10.77,,,72.94,meteohub,2013-07-22 23:49:00,
2013-07-22 19:54:00,73.4,71.6,29.87,WNW,294,0.0,0.0,94,11.46,,,73.66,meteohub,2013-07-22 23:54:00,
2013-07-22 19:59:00,73.4,71.6,29.87,WNW,294,0.0,0.0,94,12.76,,,75.22,meteohub,2013-07-22 23:59:00,
2013-07-22 20:05:00,73.4,71.6,29.87,WNW,294,0.0,0.0,94,12.40,,,75.94,meteohub,2013-07-23 00:05:00,
2013-07-22 20:10:00,73.2,71.4,29.87,WNW,294,0.0,0.0,94,13.65,,,2.28,meteohub,2013-07-23 00:10:00,
2013-07-22 20:15:00,73.2,71.4,29.87,WNW,294,0.0,0.0,94,13.09,,,2.92,meteohub,2013-07-23 00:15:00,
2013-07-22 20:20:00,73.2,71.4,29.86,WNW,294,0.0,0.0,94,13.33,,,4.36,meteohub,2013-07-23 00:20:00,
2013-07-22 20:25:00,73.0,71.6,29.86,WNW,294,0.0,0.0,95,13.84,,,5.80,meteohub,2013-07-23 00:25:00,
2013-07-22 20:30:00,73.0,71.6,29.86,WNW,294,0.0,0.0,95,13.36,,,6.52,meteohub,2013-07-23 00:30:00,
2013-07-22 20:36:00,72.9,71.4,29.86,WNW,294,0.0,0.0,95,13.60,,,7.96,meteohub,2013-07-23 00:36:00,
2013-07-22 20:41:00,72.9,71.4,29.86,WNW,294,0.0,0.0,95,13.24,,,8.68,meteohub,2013-07-23 00:41:00,
2013-07-22 20:46:00,72.9,71.4,29.86,WNW,294,0.0,0.0,95,13.72,,,10.24,meteohub,2013-07-23 00:46:00,
2013-07-22 20:51:00,72.9,71.4,29.86,WNW,294,0.0,0.0,95,13.96,,,11.68,meteohub,2013-07-23 00:51:00,
2013-07-22 20:56:00,72.9,71.4,29.86,WNW,294,0.0,0.0,95,13.48,,,12.40,meteohub,2013-07-23 00:56:00,
2013-07-22 21:01:00,72.9,71.4,29.85,WNW,294,0.0,0.0,95,13.72,,,13.84,meteohub,2013-07-23 01:01:00,
2013-07-22 21:06:00,72.9,71.6,29.86,WNW,294,0.0,0.0,96,13.96,,,15.28,meteohub,2013-07-23 01:06:00,
2013-07-22 21:11:00,72.7,71.4,29.86,WNW,294,0.0,0.0,96,13.60,,,16.00,meteohub,2013-07-23 01:11:00,
2013-07-22 21:17:00,72.7,71.4,29.86,WNW,294,0.0,0.0,96,13.92,,,17.44,meteohub,2013-07-23 01:17:00,
2013-07-22 21:22:00,72.7,71.4,29.86,WNW,294,0.0,0.0,96,13.02,,,17.74,meteohub,2013-07-23 01:22:00,
2013-07-22 21:27:00,72.7,71.4,29.86,WNW,294,0.0,0.0,96,11.86,,,17.78,meteohub,2013-07-23 01:27:00,
2013-07-22 21:32:00,72.7,71.4,29.86,WNW,294,0.0,0.0,96,12.10,,,19.22,meteohub,2013-07-23 01:32:00,
2013-07-22 21:37:00,72.5,71.2,29.86,WNW,294,0.0,0.0,96,11.62,,,19.94,meteohub,2013-07-23 01:37:00,
2013-07-22 21:42:00,72.5,71.2,29.86,WNW,294,0.0,0.0,96,11.86,,,21.38,meteohub,2013-07-23 01:42:00,
2013-07-22 21:47:00,72.5,71.6,29.86,WNW,294,0.0,0.0,97,12.34,,,22.22,meteohub,2013-07-23 01:47:00,
2013-07-22 21:52:00,72.3,71.4,29.86,WNW,294,0.0,0.0,97,11.86,,,23.66,meteohub,2013-07-23 01:52:00,
2013-07-22 21:57:00,72.3,71.4,29.86,WNW,294,0.0,0.0,97,12.10,,,25.10,meteohub,2013-07-23 01:57:00,
2013-07-22 22:02:00,72.3,71.4,29.86,WNW,294,0.0,0.0,97,11.62,,,25.82,meteohub,2013-07-23 02:02:00,
2013-07-22 22:07:00,72.3,71.4,29.86,WNW,294,0.0,0.0,97,11.86,,,27.26,meteohub,2013-07-23 02:07:00,
2013-07-22 22:12:00,72.3,71.4,29.85,WNW,294,0.0,0.0,97,11.98,,,28.58,meteohub,2013-07-23 02:12:00,
2013-07-22 22:17:00,72.3,71.4,29.85,WNW,294,0.0,0.0,97,11.58,,,29.30,meteohub,2013-07-23 02:17:00,
2013-07-22 22:22:00,72.3,71.4,29.85,WNW,294,0.0,0.0,97,12.72,,,30.46,meteohub,2013-07-23 02:22:00,
2013-07-22 22:27:00,72.3,71.4,29.86,WNW,294,0.0,0.0,97,12.77,,,31.03,meteohub,2013-07-23 02:27:00,
2013-07-22 22:32:00,72.3,71.4,29.86,WNW,294,0.0,0.0,97,11.67,,,31.13,meteohub,2013-07-23 02:32:00,
2013-07-22 22:37:00,72.1,71.2,29.86,WNW,294,0.0,0.0,97,10.69,,,31.35,meteohub,2013-07-23 02:37:00,
2013-07-22 22:42:00,72.1,71.2,29.85,WNW,294,0.0,0.0,97,9.49,,,31.35,meteohub,2013-07-23 02:42:00,
2013-07-22 22:47:00,72.1,71.2,29.85,WNW,294,0.0,0.0,97,8.29,,,31.35,meteohub,2013-07-23 02:47:00,
2013-07-22 22:52:00,72.1,71.2,29.85,WNW,294,0.0,0.0,97,7.21,,,31.35,meteohub,2013-07-23 02:52:00,
2013-07-22 22:57:00,72.0,71.1,29.85,WNW,294,0.0,0.0,97,6.01,,,31.35,meteohub,2013-07-23 02:57:00,
2013-07-22 23:02:00,72.0,71.1,29.85,WNW,294,0.0,0.0,97,4.81,,,31.35,meteohub,2013-07-23 03:02:00,
2013-07-22 23:07:00,72.0,71.1,29.85,WNW,294,0.0,0.0,97,3.61,,,31.35,meteohub,2013-07-23 03:07:00,
2013-07-22 23:12:00,72.0,71.1,29.84,WNW,294,0.0,0.0,97,3.37,,,32.19,meteohub,2013-07-23 03:12:00,
2013-07-22 23:17:00,72.0,71.1,29.84,WNW,294,0.0,0.0,97,3.40,,,33.04,meteohub,2013-07-23 03:17:00,
2013-07-22 23:22:00,72.0,71.1,29.84,WNW,294,0.0,0.0,97,3.54,,,34.48,meteohub,2013-07-23 03:22:00,
2013-07-22 23:27:00,72.0,71.4,29.84,WNW,294,0.0,0.0,98,4.89,,,35.92,meteohub,2013-07-23 03:27:00,
2013-07-22 23:32:00,71.8,71.2,29.84,WNW,294,0.0,0.0,98,5.17,,,36.52,meteohub,2013-07-23 03:32:00,
2013-07-22 23:37:00,71.8,71.2,29.84,WNW,294,0.0,0.0,98,6.61,,,37.96,meteohub,2013-07-23 03:37:00,
2013-07-22 23:42:00,71.8,71.2,29.84,WNW,294,0.0,0.0,98,8.16,,,39.51,meteohub,2013-07-23 03:42:00,
2013-07-22 23:47:00,71.8,71.2,29.83,WNW,294,0.0,0.0,98,8.88,,,40.23,meteohub,2013-07-23 03:47:00,
2013-07-22 23:52:00,71.8,71.2,29.83,WNW,294,0.0,0.0,98,10.32,,,41.67,meteohub,2013-07-23 03:52:00,
2013-07-22 23:57:00,71.8,71.2,29.83,WNW,294,0.0,0.0,98,11.04,,,42.39,meteohub,2013-07-23 03:57:00,